Preview of NWS' New Version of Forecast
This preview is not operational and should not be used for support decisions.

Regional Weather Roundup (RWR)

Issued by National Weather Service (NWS)

                            
000
ASUS45 KBOI 250310
RWRID 

IDAHO REGIONAL WEATHER ROUNDUP
NATIONAL WEATHER SERVICE BOISE ID
900 PM MDT MON JUN 24 2019

NOTE: "FAIR" INDICATES FEW OR NO CLOUDS BELOW 12000 FEET
WITH NO SIGNIFICANT WEATHER AND/OR OBSTRUCTIONS TO VISIBILITY

IDZ012-014-250400-
SOUTHWEST IDAHO

  
CITY           SKY/WX    TMP DP  RH WIND       PRES   REMARKS
BOISE          CLEAR     74  37  26 N7        29.82F                  
CALDWELL       CLEAR     72  47  40 N3        29.81F                  
$$

IDZ016-017-250400-
SOUTHCENTRAL IDAHO

  
CITY           SKY/WX    TMP DP  RH WIND       PRES   REMARKS
BURLEY         MOCLDY    66  45  46 W5        29.87F                  
JEROME         MOCLDY    72  39  30 S3        29.88F                  
TWIN FALLS     MOCLDY    69  39  33 CALM      29.89S                  
$$

IDZ019>023-250400-
SOUTHEAST IDAHO

  
CITY           SKY/WX    TMP DP  RH WIND       PRES   REMARKS
IDAHO FALLS    PTCLDY    66  31  27 W18G26    29.90R                  
POCATELLO      MOCLDY    65  40  39 S8        29.91S                  
REXBURG        PTCLDY    66  33  29 SW12      29.88S                  
$$

IDZ006-010-011-018-031-032-250400-
CENTRAL IDAHO MOUNTAINS

  
CITY           SKY/WX    TMP DP  RH WIND       PRES   REMARKS
MCCALL         CLEAR     63  29  27 CALM      29.93S                  
HAILEY         PTCLDY    63  34  34 NW6       29.94F                  
STANLEY          N/A     57  30  35 N3        30.01F                  
SALMON         PTCLDY    65  36  34 NE8       29.86R                  
CHALLIS        CLEAR     67  24  19 SW15      29.91R                  
$$

IDZ002-004-006-007-026-250400-
NORTHERN IDAHO

  
CITY           SKY/WX    TMP DP  RH WIND       PRES   REMARKS
LEWISTON       CLEAR     73  31  21 NW8       29.84S                  
LOWELL           N/A     62  51  67 CALM      29.84R                  
COEUR D'ALENE  PTCLDY    65  41  41 S7        29.88S                  
MULLAN PASS    CLEAR     48  31  51 VRB3      29.98S                  
$$